Total_Precipitation_Accumulation
0.11 0.25 0.58 0.94 1.52 2.20 1.94 1.30 0.74 0.55 0.51 0.62 0.71 0.67 0.75 0.86 1.22 1.95 2.01 1.77 1.51 1.68 1.93 2.26 2.43 2.12 1.90 1.89 1.84 1.87 1.96 1.96 1.92 1.99 2.05 2.13 2.39 2.63 2.80 2.78 2.58 2.43 2.32 2.19 2.21 2.19 2.07 2.01 1.90
0.20 0.44 0.75 1.10 1.85 2.16 1.70 1.46 0.71 0.56 0.55 0.59 0.64 0.68 0.73 0.66 0.62 1.07 1.76 1.64 1.40 1.49 1.64 1.91 2.23 2.01 1.75 1.81 1.84 1.94 1.95 1.87 1.83 1.90 2.02 2.23 2.56 2.77 2.75 2.54 2.39 2.31 2.15 2.04 2.03 2.06 1.95 1.78 1.68
0.29 0.54 0.81 1.13 1.28 1.32 1.08 0.93 0.58 0.54 0.52 0.62 0.66 0.63 0.64 0.87 0.84 1.19 1.47 1.34 1.40 1.48 1.63 2.03 2.22 2.04 1.91 1.90 1.97 1.96 1.87 1.83 1.88 2.02 2.26 2.56 2.64 2.63 2.48 2.31 2.17 2.05 1.89 1.87 1.84 1.93 1.91 1.74 1.64
0.31 0.56 0.75 0.78 0.67 0.64 0.59 0.51 0.37 0.45 0.44 0.54 0.63 0.62 0.76 0.89 0.83 1.15 1.32 1.38 1.40 1.52 1.68 1.92 2.13 1.98 1.91 1.82 1.84 1.93 1.96 1.94 1.99 2.04 2.23 2.44 2.44 2.40 2.25 2.04 1.90 1.83 1.69 1.63 1.71 1.92 1.97 1.75 1.69
0.37 0.57 0.72 0.60 0.47 0.50 0.47 0.40 0.34 0.41 0.42 0.57 0.70 0.86 1.10 1.09 0.91 1.19 1.37 1.38 1.36 1.41 1.60 1.70 2.04 2.11 2.02 1.91 1.94 1.98 1.99 1.98 1.94 1.92 2.05 2.11 2.17 2.22 2.03 1.79 1.73 1.69 1.50 1.46 1.77 2.00 1.93 1.67 1.62
0.38 0.57 0.50 0.38 0.40 0.42 0.39 0.30 0.28 0.38 0.47 0.57 0.75 1.03 1.44 1.53 1.27 1.25 1.27 1.18 1.25 1.37 1.49 1.60 1.96 2.17 2.17 2.03 2.00 1.93 1.98 2.04 1.92 1.86 1.96 1.93 1.85 1.94 1.85 1.64 1.59 1.53 1.46 1.58 1.85 1.95 1.79 1.60 1.60
0.45 0.49 0.32 0.23 0.30 0.37 0.35 0.25 0.26 0.30 0.45 0.68 0.86 1.13 1.62 2.01 1.67 1.34 1.32 1.35 1.44 1.42 1.50 1.73 1.98 2.00 1.99 2.13 2.04 1.97 1.98 2.08 2.05 1.92 1.92 1.86 1.70 1.65 1.58 1.62 1.64 1.51 1.60 1.80 1.95 1.90 1.72 1.57 1.64
0.24 0.24 0.23 0.20 0.19 0.31 0.33 0.25 0.24 0.30 0.41 0.61 0.78 1.06 1.68 1.74 1.48 1.40 1.63 1.73 1.87 1.74 1.63 1.76 1.90 1.77 1.67 1.73 1.85 1.82 1.78 1.79 1.87 1.87 1.82 1.88 1.86 1.69 1.62 1.59 1.64 1.68 1.74 1.99 2.06 1.97 1.82 1.60 1.62
0.14 0.15 0.16 0.15 0.14 0.22 0.24 0.23 0.25 0.29 0.37 0.60 0.77 1.02 1.35 1.31 1.25 1.30 1.88 2.07 2.12 1.97 1.87 1.74 1.63 1.57 1.53 1.38 1.42 1.65 1.75 1.73 1.79 1.83 1.79 1.86 1.98 1.73 1.76 1.71 1.94 2.00 1.96 2.18 2.35 2.32 2.11 1.89 1.79
0.10 0.10 0.09 0.08 0.09 0.14 0.19 0.25 0.25 0.31 0.52 0.92 1.22 1.26 1.22 1.22 1.35 1.54 1.97 1.98 2.14 2.19 1.96 1.87 1.74 1.54 1.33 1.16 1.36 1.75 1.60 1.65 1.77 1.93 1.91 2.08 2.28 2.29 1.73 1.91 2.28 2.47 2.55 2.63 2.77 2.78 2.38 2.00 1.88
0.06 0.06 0.05 0.07 0.10 0.13 0.17 0.25 0.29 0.35 0.78 1.25 1.70 1.53 1.33 1.44 1.56 1.83 2.22 2.45 2.42 2.52 2.27 2.16 1.96 1.67 1.40 1.47 1.35 1.53 1.73 1.86 1.90 1.91 1.97 2.16 2.01 1.84 1.74 2.02 2.41 2.66 2.67 2.65 2.89 2.88 2.47 2.48 2.71
0.05 0.06 0.09 0.12 0.14 0.16 0.22 0.27 0.33 0.45 0.74 0.88 1.11 1.35 1.47 1.66 1.89 2.16 2.32 2.55 2.56 2.65 2.53 2.56 2.19 2.00 1.99 1.77 1.48 1.38 1.40 1.55 1.78 2.08 2.06 2.16 2.39 2.31 2.24 2.42 2.46 2.56 2.79 3.23 3.04 3.19 3.07 3.04 2.91
0.04 0.07 0.11 0.12 0.12 0.15 0.21 0.23 0.34 0.49 0.59 0.65 0.95 1.32 1.67 1.79 2.08 2.39 2.48 2.76 2.65 2.62 2.65 2.72 2.52 2.32 2.37 2.14 1.90 1.65 1.76 1.75 1.85 2.06 2.21 2.15 2.48 2.73 2.76 2.75 2.71 2.57 2.66 2.92 3.09 3.05 3.37 3.54 3.13
0.04 0.06 0.07 0.09 0.11 0.14 0.19 0.24 0.34 0.50 0.65 0.82 1.04 1.33 1.66 1.97 2.18 2.34 2.76 2.93 2.96 2.87 2.93 2.75 2.69 2.68 2.66 2.56 2.50 2.41 2.15 2.25 2.17 2.19 2.20 2.25 2.56 2.97 3.16 3.10 3.00 2.81 2.75 2.86 3.02 3.17 3.63 3.58 3.41
0.05 0.08 0.10 0.11 0.13 0.15 0.21 0.40 0.55 0.67 0.73 0.88 1.09 1.25 1.60 2.13 2.37 2.40 2.74 2.89 2.83 3.21 3.26 3.26 3.21 3.33 3.28 3.12 3.00 2.76 2.56 2.45 2.47 2.57 2.61 2.52 2.64 2.98 3.01 2.86 2.75 2.76 2.84 3.01 3.04 3.24 3.45 3.15 3.17
0.07 0.17 0.24 0.21 0.19 0.18 0.27 0.64 0.73 0.78 0.78 0.98 1.16 1.34 1.65 1.97 2.29 2.44 2.73 2.93 3.01 3.39 3.58 3.77 3.72 3.73 3.57 3.58 3.55 3.27 3.02 2.85 2.71 2.66 2.71 2.56 2.57 2.72 3.00 2.78 2.65 2.95 2.94 3.06 3.36 3.50 3.43 3.38 3.40
0.13 0.16 0.20 0.21 0.17 0.16 0.23 0.53 0.68 0.81 1.04 1.20 1.37 1.52 1.58 1.87 2.18 2.54 2.81 3.16 3.44 3.78 4.07 4.29 4.29 4.14 3.87 3.92 3.89 3.72 3.57 3.27 2.91 2.74 2.66 2.55 2.54 2.69 3.02 3.03 3.12 3.15 3.24 3.27 3.10 3.53 3.59 3.49 3.51
0.14 0.15 0.18 0.20 0.17 0.18 0.31 0.56 0.66 0.85 1.14 1.18 1.43 1.61 1.69 1.75 2.21 2.66 2.87 3.28 3.75 4.27 4.68 4.54 4.48 4.69 4.54 4.40 4.27 4.00 3.53 3.10 2.95 2.92 2.73 2.60 2.67 2.79 3.24 3.11 3.09 3.15 3.33 3.41 3.38 3.54 3.58 3.30 3.26
0.08 0.12 0.17 0.20 0.17 0.21 0.36 0.62 0.87 1.01 1.32 1.28 1.30 1.47 1.59 1.71 2.02 2.44 2.74 3.30 3.90 4.32 4.72 4.89 4.93 4.84 4.67 4.33 4.01 3.77 3.54 3.32 3.06 2.87 2.78 2.70 2.60 2.82 3.31 3.11 3.37 3.29 3.29 3.33 3.38 3.52 3.44 3.14 3.33
0.10 0.13 0.16 0.21 0.20 0.28 0.47 0.69 0.98 1.02 1.10 1.18 1.10 1.17 1.35 1.69 1.95 2.46 2.77 3.00 3.44 3.95 4.41 4.73 4.92 4.79 4.41 4.06 3.89 3.79 3.75 3.36 3.06 3.04 3.18 2.99 2.99 3.04 3.09 3.31 3.25 3.29 3.42 3.38 3.37 3.53 3.32 2.96 3.25
0.12 0.14 0.16 0.16 0.21 0.39 0.52 0.97 1.21 1.08 1.04 1.07 1.08 1.17 1.35 1.77 2.22 2.49 2.68 2.85 3.12 3.51 3.81 3.92 4.10 4.07 3.91 3.96 3.98 3.94 3.97 3.57 3.49 3.49 3.49 3.27 3.25 3.26 3.28 3.25 3.16 3.18 2.99 3.07 3.17 3.21 3.23 3.16 3.12
0.14 0.12 0.11 0.12 0.24 0.50 0.57 1.21 1.57 1.31 1.20 1.31 1.35 1.32 1.59 1.86 1.88 2.07 2.36 2.66 2.85 3.08 3.41 3.63 3.69 3.65 3.57 3.69 3.76 3.66 3.49 3.38 3.54 3.82 3.75 3.47 3.24 3.10 2.91 2.86 3.02 3.05 2.82 2.88 2.55 2.71 2.91 2.94 2.80
0.11 0.11 0.12 0.16 0.27 0.46 0.59 0.97 1.48 1.45 1.53 1.53 1.45 1.50 1.76 1.74 1.64 1.75 1.96 2.29 2.43 2.76 3.03 3.25 3.51 3.61 3.54 3.61 3.59 3.61 3.46 3.46 3.53 3.55 3.60 3.40 3.20 2.88 2.53 2.55 2.73 2.69 2.60 2.53 2.44 2.62 2.50 2.45 2.52
0.09 0.13 0.22 0.30 0.45 0.80 0.64 0.75 1.28 1.43 1.33 1.32 1.36 1.33 1.51 1.48 1.46 1.67 1.84 2.14 2.32 2.45 2.57 2.68 2.89 3.16 3.33 3.36 3.32 3.38 3.32 3.30 3.26 3.24 3.13 2.93 2.78 2.58 2.28 2.16 2.32 2.42 2.47 2.43 2.42 2.50 2.40 2.42 2.56
0.10 0.20 0.63 1.01 1.19 1.20 0.64 0.72 1.22 1.16 1.09 1.07 1.18 1.24 1.27 1.20 1.19 1.42 1.59 1.75 1.97 2.10 2.19 2.31 2.57 2.92 3.01 2.93 2.90 3.02 3.09 3.10 3.04 3.03 2.89 2.67 2.44 2.20 2.15 2.15 2.24 2.27 2.33 2.20 2.27 2.33 2.37 2.54 2.61
0.13 0.19 0.54 0.89 0.99 1.00 0.81 1.18 1.59 1.15 1.01 1.02 1.08 1.09 1.04 0.96 0.92 1.09 1.37 1.68 1.87 1.86 1.91 2.05 2.34 2.60 2.64 2.57 2.70 2.94 2.99 3.04 2.96 2.99 2.68 2.43 2.22 2.14 2.24 2.22 2.07 2.03 2.12 2.01 2.29 2.21 2.27 2.50 2.57
0.14 0.16 0.23 0.42 0.52 0.79 1.04 1.30 1.31 0.84 0.78 0.85 0.92 0.94 1.02 0.99 0.93 1.02 1.12 1.35 1.49 1.55 1.62 1.76 2.18 2.44 2.54 2.61 2.73 2.84 2.93 2.90 2.86 2.75 2.47 2.22 2.25 2.19 2.34 2.29 2.18 2.07 2.14 2.26 2.54 2.47 2.42 2.63 2.62
0.14 0.17 0.23 0.33 0.56 0.86 1.07 1.31 1.43 1.02 0.83 0.63 0.60 0.67 0.70 0.75 0.79 0.86 0.91 1.03 1.14 1.33 1.59 1.75 1.90 2.20 2.31 2.40 2.55 2.57 2.79 2.71 2.55 2.50 2.27 2.05 1.98 2.05 2.23 2.36 2.28 2.18 2.21 2.38 2.59 2.58 2.72 2.89 2.91
0.17 0.17 0.19 0.24 0.36 0.62 1.11 1.30 0.99 0.82 0.68 0.65 0.64 0.72 0.71 0.73 0.72 0.76 0.89 1.02 1.12 1.27 1.47 1.57 1.60 1.78 1.92 2.03 2.23 2.23 2.26 2.35 2.41 2.26 2.00 1.92 1.94 2.02 2.09 2.27 2.33 2.28 2.31 2.42 2.49 2.44 2.76 2.90 2.92
0.17 0.15 0.18 0.24 0.24 0.36 0.67 0.92 0.68 0.71 0.70 0.63 0.70 0.80 0.87 0.86 0.78 0.82 0.99 1.12 1.20 1.33 1.36 1.38 1.44 1.60 1.76 1.92 2.12 2.21 2.21 2.26 2.29 2.16 1.98 1.95 2.00 2.06 2.06 2.18 2.22 2.12 2.14 2.34 2.37 2.41 2.69 2.85 2.73